Location: *
(47.8307°S, 178.3954°E)
Time: 07:57:02
(UTC+00:00)

SJ-6F - Pass Details

Date: 12 August 2024
Orbit: 555 x 579 km, 97.9° (Epoch: 18 September)

Event Time Altitude Azimuth Distance (km) Brightness Sun altitude
Rises 16:51:14 0° 18° (NNE) 2,759 8.1 -24.2°
Reaches altitude 10° 16:53:21 10° 18° (NNE) 1,875 7.2 -23.9°
Maximum altitude 16:57:25 81° 104° (ESE) 593 4.4 -23.2°
Enters shadow 16:59:36 27° 190° (S) 1,128 5.8 -22.8°
